Location: Alfortville
(48.8058°N, 2.4204°E)
Time: 05:01:56
(UTC+00:00)

USA 229 DEB - Pass Details

Date: 06 June 2022
Orbit: 934 x 1278 km, 63.4° (Epoch: 24 May)

Event Time Altitude Azimuth Distance (km) Brightness Sun altitude
Rises 21:35:09 0° 317° (NW) 3,955 8.5 -12.5°
Reaches altitude 10° 21:37:46 10° 316° (NW) 3,040 7.5 -12.7°
Maximum altitude 21:45:05 75° 233° (SW) 1,249 4.0 -13.3°
Enters shadow 21:51:10 18° 151° (SSE) 2,650 5.1 -13.8°
